Regional Weather Roundup
Issued by NWS San Diego, CA

Home | Current Version | Previous Version | Text Only | Print | Product List | Glossary On
Versions: 1 2 3 4 5 6 7 8 9 10 11 12 13 14 15 16 17 18 19 20 21 22 23 24 25 26 27 28 29 30 31 32 33 34 35 36 37 38 39 40 41 42 43 44 45 46 47 48 49 50
000
ASUS46 KSGX 261411
RWRSGX

SAN DIEGO HOURLY WEATHER ROUNDUP
NATIONAL WEATHER SERVICE SAN DIEGO CA
700 AM PDT TUE JUL 26 2016

NOTE: "FAIR" INDICATES FEW OR NO CLOUDS BELOW 12,000 FEET WITH NO
SIGNIFICANT WEATHER AND/OR OBSTRUCTIONS TO VISIBILITY.

CAZ042-043-060-061-PZZ750-775-261500-

GREATER SAN DIEGO AREA

CITY           SKY/WX    TMP DP  RH WIND       PRES   REMARKS
LINDBERGH FLD  PTSUNNY   68  67  96 NE3       29.91R
POINT LOMA       N/A     68  65  92 N8          N/A
NATIONAL CITY    N/A     71  68  90 W3        29.91R
CHULA VISTA      N/A     69  67  94 CALM      29.83R
IMPERIAL BEACH PTSUNNY   73  67  81 NW7       29.90R
BROWN FIELD    SUNNY     71  66  84 CALM      29.90R
MIRAMAR MCAS   PTSUNNY   69  67  93 N5        29.91R
MONTGOMERY FLD CLOUDY    70  66  87 N3        29.91R FOG

$$

NORTH SAN DIEGO COUNTY

CITY           SKY/WX    TMP DP  RH WIND       PRES   REMARKS
CAMP PENDLETON SUNNY     67  64  90 MISG      29.88S FOG
OCEANSIDE AP   SUNNY     67  63  87 CALM      29.88S FOG
OCEANSIDE HBR    N/A     70  68  93 CALM      29.91S
VISTA            N/A     66  60  82 CALM      29.86F
CARLSBAD       MOSUNNY   70  67  90 CALM      29.88S
DEL MAR          N/A     69  68  97 CALM      29.91R
LA JOLLA SCRIP   N/A     70  69  96 W2        29.89R
FALLBROOK        N/A     66  66  98 CALM      29.87S
ESCONDIDO        N/A     70  66  87 CALM      29.90R
SAN MARCOS       N/A    N/A N/A N/A CALM      29.91S
POWAY            N/A     67  62  85 CALM      29.90R

$$

EAST SAN DIEGO COUNTY

CITY           SKY/WX    TMP DP  RH WIND       PRES   REMARKS
RAMONA         SUNNY     68  57  68 CALM      29.93R
SANTEE LAKES     N/A     69  65  85 CALM      29.88R
LA MESA          N/A     68  65  91 CALM      29.82R
JAMUL            N/A     67  64  90 CALM      29.88R
DESCANSO N       N/A     69  55  60 CALM      29.76R
CAMPO            N/A     69  58  67 E3        29.97R

$$

ORANGE COUNTY AND THE LOS ANGELES BASIN

CITY           SKY/WX    TMP DP  RH WIND       PRES   REMARKS
JOHN WAYNE AP  MOSUNNY   72  66  81 W3        29.89R
LAKE FOREST FR   N/A     67  62  81 CALM      29.77R
HUNTINGTON BCH   N/A     69  67  93 CALM      29.91R
LOS ALAMITOS   FAIR      71  65  80 NW3       29.88S
FULLERTON      SUNNY     73  64  73 NW5       29.88R
LONG BEACH     SUNNY     70  65  84 NW7       29.89R
L.A. AP        PTSUNNY   66  64  94 W6        29.89F FOG
L.A. DOWNTOWN  SUNNY     69  65  86 W3        29.89S

$$

THE INLAND EMPIRE

CITY           SKY/WX    TMP DP  RH WIND       PRES   REMARKS
CORONA         SUNNY     69  63  81 CALM      29.91S
CHINO          SUNNY     71  64  78 CALM      29.92S
ONTARIO        MOSUNNY   74  60  61 CALM      29.92R
SAN BERNARDINO SUNNY     75  55  50 CALM      29.93S
RIVERSIDE AP   SUNNY     74  59  59 CALM      29.92R
MORENO VALLEY    N/A     72  56  58 CALM      28.05S
MARCH ARB      SUNNY     75  58  56 CALM      29.94S
HORSETHIEF CYN   N/A     71  53  52 CALM      29.91R
PERRIS           N/A     72  60  65 CALM      29.95S
HEMET EAST       N/A     91  41  17 CALM      29.82S
FRENCH VALLEY  FAIR      72  57  60 NE3       29.94S
TEMECULA         N/A     69  61  75 E2        29.90R

$$

SAN BERNARDINO AND RIVERSIDE COUNTY MOUNTAINS

CITY           SKY/WX    TMP DP  RH WIND       PRES   REMARKS
BIG BEAR AP    SUNNY     55  41  58 CALM      30.31S
ANGELUS OAKS     N/A     67  48  50 CALM      29.75R
PINE COVE        N/A     71  49  45 CALM      29.84S

$$

SOUTHERN DESERT INCLUDING THE COACHELLA VALLEY

CITY           SKY/WX    TMP DP  RH WIND       PRES   REMARKS
PALM SPRINGS   SUNNY     91  49  23 W5        29.81S
THOUSAND PALMS   N/A     90  50  25 W6        29.76S
PALM DESERT      N/A     87  57  35 CALM      27.13S
THERMAL        SUNNY     90  48  23 NW5       29.76R
BLYTHE         MOSUNNY   92  65  40 N3        29.81R
IMPERIAL AP    SUNNY     91  66  43 SE12      29.78R
EL CENTRO NAS  MOSUNNY   89  64  43 SE10      29.80R
YUMA AZ        MOSUNNY   86  71  60 CALM      29.82
MEXICALI       MOSUNNY   86  64  48 SE5       29.81

$$

UPPER DESERT

CITY           SKY/WX    TMP DP  RH WIND       PRES   REMARKS
VICTORVILLE AP SUNNY     77  45  31 S8        30.01R
HESPERIA         N/A     75  46  35 W3        29.93R
PALMDALE       SUNNY     80  38  22 S6        29.99R
LANCASTER      SUNNY     81  35  19 W3        29.97R
EDWARDS AFB    MOSUNNY   77  38  24 SW7       29.95R
DAGGETT        SUNNY     82  44  26 W9        29.94R
29 PALMS N     MOSUNNY   84  46  26 NW6       30.00R
NEEDLES        SUNNY     96  58  27 N3        29.84R HX  95

$$

REGIONAL REPORTS

CITY           SKY/WX    TMP DP  RH WIND       PRES   REMARKS
SANTA BARBARA  FOG       62  62 100 NE3       29.91S VSB 3/4
SANDBERG       SUNNY     80  29  15 NW12      30.14R
LAS VEGAS NV   MOSUNNY   89  53  29 W7        29.89R
PHOENIX AZ     MOSUNNY   92  58  31 SW5       29.86R
TIJUANA        MOSUNNY   68  63  83 CALM      29.92R
ENSENADA NW      N/A     70  32  24 W1        29.88R

$$

OFFSHORE ISLANDS

CITY           SKY/WX    TMP DP  RH WIND       PRES   REMARKS
CATALINA ARPT  SUNNY     76  25  15 NW5       29.95R
SAN CLEMENTE I MOSUNNY   64  61  88 NW5       29.93
SAN NICOLAS IS PTCLDY    61  56  83 CALM      29.90F FOG

$$

MARINE AND OFFSHORE BUOY REPORTS

STATION/POSITION SKY/WX   TEMP    WIND        PRES    SWELL
                          AIR SEA DIR/SP/G            HT/PER/DIR
                          (F)     (DEG/KT/KT) (MB)    (FT/S/D)
TANNER BANKS               60 64  320/  8/ 12 1013.2R   7/270/10
S CLEMENTE BASIN           66 70  310/  8/ 10 1012.3R   3/180/14
SAN NICOLAS IS.               64                N/A     3/200/11
SO. S. ROSA ISLA           60 66  300/  6/  8 1012.9R   5/300/ 9
W. S. BARBARA CH           58 61  320/ 10/ 12 1012.1    3/220/14
M. S. BARBARA CH                  120/  2/  4 1013.4R
S. MONICA BASIN            66 72  250/  4/  6 1012.0F
S PEDRO CHANNEL               70                N/A     2/180/14
OCEANSIDE OFFSHR              75                N/A     2/200/13
TORREY PINES OTR              74                N/A     2/190/13
LA JOLLA 1                 71 69  350/  5/  6 1011.7R
SAN DIEGO BAY                 78              1011.9R
POINT LOMA SOUTH              71                N/A     2/200/13

$$




USA.gov is the U.S. government's official web portal to all federal, state and local government web resources and services.